Regional Weather Roundup
Issued by NWS

Home | Current Version | Previous Version | Graphics & Text | Print | Product List | Glossary On
Versions: 1 2 3 4 5 6 7 8 9 10 11 12 13 14 15 16 17 18 19 20 21 22 23 24 25 26 27 28 29 30 31 32 33 34 35 36 37 38 39 40 41 42 43 44 45 46 47 48 49 50
000
ASUS45 KBOU 300707
RWRCO

WEATHER ROUNDUP FOR COLORADO
NATIONAL WEATHER SERVICE DENVER/BOULDER CO
100 AM MDT SAT AUG 30 2014

NOTE: "FAIR" INDICATES FEW OR NO CLOUDS BELOW 12000 FEET WITH NO
SIGNIFICANT WEATHER AND/OR OBSTRUCTIONS TO VISIBILITY.

COZ001>005-013-030-031-300800-
...NORTHWEST COLORADO...

CITY           SKY/WX    TMP DP  RH WIND       PRES   REMARKS
CRAIG          CLEAR     51  48  89 SE3       30.18F
HAYDEN         CLEAR     54  43  66 SE5       30.21S
MEEKER         CLEAR     54  45  71 E12       30.21F
MOUNT WERNER   NOT AVBL
STEAMBOAT SPGS CLEAR     51  45  78 CALM      30.24S
WALDEN         PTCLDY    43  37  81 SE8       30.30F
$$

COZ006>008-011-300800-
...WEST CENTRAL VALLEYS...

CITY           SKY/WX    TMP DP  RH WIND       PRES   REMARKS
GRAND JUNCTION PTCLDY    61  51  70 SE9       30.09S
MONTROSE       PTCLDY    61  45  55 SE13      30.19F
EAGLE          CLEAR     52  45  76 CALM      30.28S
RIFLE          CLEAR     57  49  74 E3        30.17S
DELTA          PTCLDY    63  46  55 E7        30.15S
NUCLA          PTCLDY    59  43  55 E12       30.21S
$$

COZ017>023-064>068-300800-
...SOUTHWEST COLORADO...

CITY           SKY/WX    TMP DP  RH WIND       PRES   REMARKS
DURANGO        CLEAR     56  41  57 W3        30.22R
CORTEZ         CLEAR     54  45  71 NE6       30.19R
PAGOSA SPRINGS CLEAR     53  37  55 CALM      30.29F
TELLURIDE      NOT AVBL
WOLF CREEK PAS PTCLDY    41  34  75 NE14      30.57F
$$

COZ009-010-012-014-032>034-037-058>063-300800-
...CENTRAL COLORADO...

CITY           SKY/WX    TMP DP  RH WIND       PRES   REMARKS
ASPEN          CLEAR     49  41  74 SW8       30.32S
BUENA VISTA    CLEAR     42  39  87 W3        30.37S
COPPER MTN     CLEAR     45  32  61 SW7       30.58F
BERTHOUD PASS  FAIR      37  36  93 NW20G26   30.59F
COTTONWOOD PAS CLEAR     50  32  50 W5        30.46F
GUNNISON       CLEAR     48  39  71 N5        30.35F
KREMMLING      CLEAR     46  41  81 CALM      30.32F
LEADVILLE      CLEAR     37  34  89 NE6       30.45F
MONARCH PASS   CLEAR     41  30  65 SW13      30.68S
SALIDA         CLEAR     50  43  76 W3        30.41F
SUNLIGHT       CLEAR     50  39  66 CALM      30.51F
WILKERSON PASS NOT AVBL
$$

COZ069>075-300800-
...SAN LUIS VALLEY/SANGRE DE CRISTO MOUNTAINS...

CITY           SKY/WX    TMP DP  RH WIND       PRES   REMARKS
ALAMOSA        MOCLDY    56  41  57 E10       30.32S
LA VETA PASS   NOT AVBL
SAGUACHE       NOT AVBL
$$

COZ035-036-038>040-300800-
...NORTHERN COLORADO FRONT RANGE...

CITY           SKY/WX    TMP DP  RH WIND       PRES   REMARKS
DENVER INTL AP PTCLDY    58  47  66 S8        30.14F
DMNS CITY PARK   N/A     59  46  63 SE3       30.13S
AURORA         PTCLDY    57  46  66 S10       30.16F
FRONT RANGE AP PTCLDY    59  50  72 S6        30.16S
ERIE MUNI ARPT PTCLDY    54  49  86 CALM      30.13S
BOULDER MUN AP NOT AVBL
CENTENNIAL     PTCLDY    61  43  51 SW14      30.17S
BROOMFIELD     PTCLDY    57  43  58 SW3       30.15S
FORT COLLINS   PTCLDY    57  54  88 N7        30.14R
LONGMONT       PTCLDY    57  47  70 NW5       30.14S
$$

COZ041-046-047-076>085-087-088-300800-
...PIKES PEAK/PALMER DIVIDE AND SOUTHERN FOOTHILLS...

CITY           SKY/WX    TMP DP  RH WIND       PRES   REMARKS
COLO. SPRINGS  MOCLDY    55  47  74 S10       30.22S
A. F. ACADEMY  PTCLDY    49  46  90 N9        30.24S
ELLICOTT       PTCLDY    56  49  77 SW8       30.21S
FALCON         PTCLDY    53  44  71 NW7       30.26S
FORT CARSON    PTCLDY    58  48  69 CALM      30.21R
LIMON          MOCLDY    54  50  86 E3        30.18F
MONUMENT HILL  PTCLDY    48  41  76 SW9       30.25S
TRINIDAD       MOCLDY    60  47  61 W8        30.25F
$$

COZ042>045-048>051-090-091-300800-
...NORTHEAST COLORADO...

CITY           SKY/WX    TMP DP  RH WIND       PRES   REMARKS
GREELEY ARPT   PTCLDY    54  46  76 E3        30.13S
AKRON          MOCLDY    59  52  77 S6        30.14S
BURLINGTON     PTCLDY    59  54  83 W7        30.10F
WRAY             N/A     62  57  84 NW3       30.09S
STERLING       MOCLDY    63  55  77 CALM      30.09F
HOLYOKE        PTCLDY    61  55  82 CALM      30.09S
FORT MORGAN    MOCLDY    57  51  80 NE3       30.13S
$$

COZ086-089-092>099-300800-
...SOUTHEAST COLORADO...

CITY           SKY/WX    TMP DP  RH WIND       PRES   REMARKS
PUEBLO         MOCLDY    66  47  50 NW5       30.14S
LA JUNTA       CLOUDY    64  54  69 SW16      30.11F
LAMAR          MOCLDY    63  53  70 SW9       30.06F
SPRINGFIELD      N/A     60  52  74 CALM      30.15S
$$



USA.gov is the U.S. government's official web portal to all federal, state and local government web resources and services.